Location: Del Amo
(33.8464°N, 118.2104°W)
Time: 08:45:55
(UTC+00:00)

Courier 1B Rocket - All Passes

Search period start: 19 September 2024 00:00
Search period end: 29 September 2024 00:00
Orbit: 920 x 1201 km, 28.2° (Epoch: 19 September)

Date Brightness Start Highest point End Pass type
(mag) Time Alt. Az. Time Alt. Az. Time Alt. Az.
19 Sep - 01:44:03 10° W 01:50:30 45° SSW 01:57:26 10° ESE daylight
19 Sep - 03:38:06 10° WSW 03:43:37 24° SSW 03:49:23 10° SSE visible
19 Sep - 19:10:27 10° SSE 19:10:40 10° SSE 19:10:53 10° SSE daylight
19 Sep - 20:57:52 10° SW 21:03:13 30° SSE 21:08:46 10° E daylight
19 Sep - 22:49:58 10° WSW 22:56:09 51° S 23:02:43 10° E daylight
20 Sep - 00:42:58 10° W 00:49:20 50° S 00:56:12 10° ESE daylight
20 Sep - 02:36:34 10° WSW 02:42:30 30° SSW 02:48:46 10° SE visible
20 Sep - 04:33:18 10° SW 04:35:26 11° SSW 04:37:36 10° SSW visible
20 Sep - 19:57:37 10° SSW 20:02:19 22° SSE 20:07:06 10° ESE daylight
20 Sep - 21:49:09 10° WSW 21:55:06 45° SSE 22:01:21 10° E daylight
20 Sep - 23:41:57 10° WSW 23:48:13 53° S 23:54:55 10° ESE daylight
21 Sep - 01:35:16 10° W 01:41:22 37° SSW 01:47:53 10° SE daylight
21 Sep - 03:30:08 10° WSW 03:34:21 17° SSW 03:38:43 10° S visible
21 Sep - 18:57:49 10° S 19:01:26 16° SSE 19:05:04 10° ESE daylight
21 Sep - 20:48:25 10° SW 20:54:06 37° SSE 20:59:58 10° E daylight
21 Sep - 22:40:59 10° WSW 22:47:07 53° S 22:53:37 10° ESE daylight
22 Sep - 00:34:06 10° W 00:40:15 43° SSW 00:46:49 10° ESE daylight
22 Sep - 02:28:10 10° WSW 02:33:16 22° SSW 02:38:38 10° SSE visible
22 Sep - 17:59:37 10° SSE 18:00:34 10° SSE 18:01:30 10° SE daylight
22 Sep - 19:47:51 10° SW 19:53:10 30° SSE 19:58:33 10° ESE daylight
22 Sep - 21:40:03 10° WSW 21:46:03 50° S 21:52:19 10° E daylight
22 Sep - 23:33:03 10° W 23:39:10 48° S 23:45:40 10° ESE daylight
23 Sep - 01:26:39 10° WSW 01:32:12 28° SSW 01:38:06 10° SE daylight
23 Sep - 03:24:23 10° SW 03:25:05 10° SSW 03:25:47 10° SSW visible
23 Sep - 18:47:30 10° SSW 18:52:16 23° SSE 18:56:59 10° ESE daylight
23 Sep - 20:39:11 10° WSW 20:45:03 44° S 20:51:04 10° E daylight
23 Sep - 22:32:02 10° WSW 22:38:06 52° S 22:44:29 10° ESE daylight
24 Sep - 00:25:22 10° W 00:31:09 35° SSW 00:37:17 10° SE daylight
24 Sep - 02:20:23 10° WSW 02:24:03 15° SSW 02:27:50 10° S visible
24 Sep - 17:47:34 10° S 17:51:21 16° SSE 17:55:06 10° ESE daylight
24 Sep - 19:38:22 10° SW 19:44:04 37° SSE 19:49:48 10° E daylight
24 Sep - 21:31:02 10° WSW 21:37:04 52° S 21:43:16 10° ESE daylight
24 Sep - 23:24:12 10° W 23:30:07 41° SSW 23:36:19 10° SE daylight
25 Sep - 01:18:21 10° WSW 01:23:01 21° SSW 01:27:55 10° SSE daylight
25 Sep - 16:48:43 10° SSE 16:50:27 11° SSE 16:52:10 10° SE daylight
25 Sep - 18:37:42 10° SW 18:43:08 30° SSE 18:48:29 10° ESE daylight
25 Sep - 20:30:03 10° WSW 20:36:02 50° S 20:42:06 10° E daylight
25 Sep - 22:23:07 10° W 22:29:05 47° S 22:35:17 10° ESE daylight
26 Sep - 00:16:47 10° WSW 00:22:01 27° SSW 00:27:30 10° SE daylight
26 Sep - 17:37:14 10° SSW 17:42:12 23° SSE 17:47:02 10° ESE daylight
26 Sep - 19:29:05 10° WSW 19:35:02 45° S 19:40:56 10° E daylight
26 Sep - 21:22:03 10° WSW 21:28:04 51° S 21:34:11 10° ESE daylight
26 Sep - 23:15:28 10° W 23:21:02 33° SSW 23:26:49 10° SE daylight
27 Sep - 01:10:44 10° SW 01:13:50 14° SSW 01:17:00 10° S daylight
27 Sep - 16:37:06 10° SSW 16:41:15 17° SSE 16:45:17 10° ESE daylight
27 Sep - 18:28:11 10° SW 18:34:02 38° SSE 18:39:46 10° E daylight
27 Sep - 20:20:59 10° WSW 20:27:03 52° S 20:33:06 10° ESE daylight
27 Sep - 22:14:16 10° W 22:20:03 40° SSW 22:25:58 10° SE daylight
28 Sep - 00:08:32 10° WSW 00:12:52 19° SSW 00:17:20 10° SSE daylight
28 Sep - 15:37:47 10° S 15:40:17 12° SSE 15:42:45 10° SE daylight
28 Sep - 17:27:24 10° SW 17:33:04 31° SSE 17:38:31 10° ESE daylight
28 Sep - 19:19:54 10° WSW 19:26:01 50° S 19:32:01 10° E daylight
28 Sep - 21:13:07 10° W 21:19:03 46° S 21:25:02 10° ESE daylight
28 Sep - 23:06:55 10° WSW 23:11:55 25° SSW 23:17:04 10° SSE daylight
